Location: ?????????
(54.7630°N, 39.4991°E)
Time: 02:11:41
(UTC+00:00)

CZ-4B R/B - Pass Details

Date: 14 April 2026
Orbit: 808 x 880 km, 98.9° (Epoch: 20 May)

Event Time Altitude Azimuth Distance (km) Brightness Sun altitude
Exits shadow 17:10:58 - 155° (SSE) 3,285 5.8 -7.1°
Reaches altitude 10° 17:12:58 10° 154° (SSE) 2,495 5.2 -7.4°
Maximum altitude 17:18:31 75° 70° (ENE) 905 3.3 -8.1°
Drops below altitude 10° 17:24:11 10° 346° (NNW) 2,546 6.4 -8.8°
Sets 17:26:36 0° 345° (NNW) 3,492 7.2 -9.1°
